Temp
12 13 13 14 15 15 15 15 13 16 16 15 15 11 16 17 17 17 17 16 15 15 15 15 15 15 14 15 15 13 12 11 8 13 15 15 16 14 14 9 10 8 8 11
12 13 13 14 14 15 16 16 16 16 16 8 7 16 15 15 16 16 16 16 16 16 15 14 14 15 15 15 14 12 12 8 7 10 13 13 13 14 13 11 7 10 7 10
12 12 12 13 14 15 15 15 6 15 16 16 14 15 15 14 15 15 16 16 16 15 14 14 14 14 14 14 14 13 13 11 9 8 11 12 11 12 12 11 5 9 9 11
11 12 12 13 14 14 15 15 13 14 8 12 14 14 16 14 14 15 16 15 15 14 11 12 13 14 13 14 14 13 11 8 10 10 11 12 12 12 11 11 10 9 11 11
11 11 11 12 13 14 14 14 13 14 14 15 13 13 14 15 15 15 14 14 14 14 12 12 11 11 11 12 13 10 11 7 9 8 10 11 10 10 10 10 10 11 11 12
10 11 11 12 12 13 13 13 13 13 12 13 9 10 15 14 15 14 15 14 13 10 13 13 12 12 12 12 10 9 9 6 4 9 8 7 6 8 10 11 11 11 9 10
9 10 10 11 11 12 12 12 12 13 5 9 10 14 15 15 15 14 14 14 13 12 12 12 12 12 10 9 10 11 6 3 4 7 4 7 10 12 12 11 11 11 9 8
9 9 9 10 11 11 11 11 11 12 3 9 12 13 14 14 14 14 14 14 12 12 12 4 4 4 5 7 10 7 9 3 5 6 6 8 9 11 11 9 10 8 8 9
8 9 9 9 10 10 10 10 10 10 11 6 12 12 13 8 7 11 13 12 12 12 6 4 5 3 7 8 10 8 6 4 4 4 5 6 8 11 11 11 8 8 8 7
8 8 9 9 9 9 9 9 9 9 10 11 11 12 9 13 12 6 11 11 11 10 3 5 5 4 8 6 4 5 3 3 4 2 5 6 8 12 11 6 8 8 8 7
7 8 8 8 8 9 9 9 9 8 8 10 10 11 11 11 11 4 11 9 8 4 4 4 4 5 4 6 8 7 5 4 5 2 6 5 10 10 6 8 8 9 8 7
7 7 8 8 8 8 8 8 8 8 8 9 9 10 10 11 10 10 10 10 9 8 2 2 3 4 4 4 7 9 7 6 5 5 5 9 10 10 9 9 8 8 7 6
7 7 7 7 7 7 7 8 8 7 7 7 8 10 10 10 10 10 9 9 10 10 10 6 3 5 3 5 5 5 8 9 5 5 8 9 9 9 8 8 8 6 5 4
7 7 7 7 7 7 7 7 7 7 6 6 7 8 9 9 9 9 9 9 9 9 9 8 2 3 5 4 5 6 6 7 6 6 8 8 8 8 8 7 5 4 4 5
6 7 7 7 7 7 7 7 6 6 6 5 6 7 9 8 8 8 9 9 8 8 8 5 3 5 5 4 3 4 7 7 6 6 8 7 7 7 7 5 4 5 5 4
7 6 6 6 6 6 6 5 6 7 6 6 3 6 6 7 7 8 8 8 8 8 8 6 7 8 7 3 6 9 9 9 8 7 8 8 6 5 5 6 5 4 3 4
6 6 5 5 5 5 5 6 6 6 6 5 4 4 4 6 6 6 7 7 7 7 7 6 7 6 6 2 5 8 8 8 8 8 7 5 5 5 5 4 4 4 4 3
5 5 5 5 5 5 4 5 5 6 5 4 3 2 3 4 4 5 5 6 5 6 6 4 4 5 4 3 6 7 8 8 8 7 6 5 5 5 4 4 4 3 3 3
5 5 4 5 4 3 3 4 4 4 4 3 1 2 3 3 3 4 3 3 2 3 2 3 4 2 4 4 6 7 8 7 7 6 5 4 3 3 4 3 3 3 2 2
3 3 4 2 2 2 2 2 2 2 2 1 -0 1 2 4 3 2 2 2 1 2 2 3 2 3 6 7 7 7 6 5 5 4 4 4 3 3 3 3 2 2 1 1
2 2 1 1 1 1 1 1 0 -0 -1 -1 -0 1 2 2 2 1 1 1 0 2 -0 -0 -1 1 5 8 7 6 5 3 4 4 3 3 2 2 2 2 1 1 1 -0
1 2 0 0 0 0 0 0 -0 -0 -0 0 0 1 2 1 1 1 0 1 0 1 2 1 1 1 7 6 6 4 4 4 4 3 3 2 1 1 0 0 0 -0 -0 -1
0 1 0 0 -0 -0 -1 -0 1 -1 1 0 1 0 1 0 1 0 -0 1 1 0 1 2 -0 5 4 4 4 4 3 2 2 2 1 0 0 0 0 -1 -1 -1 -1 -2
1 -0 -4 -3 -1 -2 -1 -1 -0 -1 -0 0 0 -0 -0 -0 -1 -1 -1 -2 -0 1 1 -1 -1 3 3 3 3 3 2 2 1 1 0 0 -0 -0 -1 -1 -2 -2 -2 -3
0 -1 -3 -2 0 -1 -1 -1 -1 -1 -1 -1 -0 -0 0 -1 -3 -2 -3 -2 1 -2 -2 -3 2 3 2 2 2 2 1 1 1 0 0 -0 -1 -1 -1 -2 -2 -3 -3 -3
-1 -2 -3 -1 -0 -2 -2 -1 -1 -1 -1 -0 -0 -1 -5 -5 -4 -4 -3 -3 -2 -3 -1 1 1 1 1 1 1 1 0 0 0 -0 -0 -1 -1 -1 -2 -2 -3 -3 -4 -4
-2 -2 -2 -1 -1 -1 -1 -1 -1 -1 -0 -4 -0 -5 -4 -1 -5 -4 -2 -3 -4 1 1 1 1 1 0 0 -0 -0 -0 -0 -0 -1 -1 -1 -1 -2 -2 -3 -4 -4 -5 -5
Height
1543 1543 1542 1541 1539 1538 1538 1538 1539 1540 1540 1542 1542 1550 1545 1548 1549 1550 1550 1550 1552 1554 1554 1556 1556 1558 1559 1560 1560 1563 1563 1565 1578 1556 1541 1542 1542 1550 1550 1569 1568 1567 1563 1536
1542 1542 1542 1542 1541 1540 1538 1539 1540 1542 1542 1554 1554 1547 1549 1551 1550 1552 1551 1554 1555 1555 1557 1563 1559 1558 1560 1559 1560 1563 1563 1574 1584 1565 1549 1546 1552 1549 1551 1555 1561 1554 1569 1538
1541 1542 1542 1542 1542 1541 1541 1541 1546 1544 1543 1543 1545 1548 1550 1553 1553 1554 1554 1556 1556 1557 1560 1560 1562 1560 1560 1559 1559 1561 1561 1566 1573 1581 1568 1562 1563 1556 1550 1554 1571 1549 1547 1526
1539 1541 1542 1542 1543 1542 1543 1544 1546 1547 1553 1547 1545 1546 1547 1551 1555 1555 1556 1556 1557 1559 1569 1566 1563 1561 1560 1560 1559 1559 1560 1570 1565 1561 1560 1559 1556 1551 1542 1546 1543 1547 1524 1527
1539 1540 1541 1542 1543 1543 1544 1546 1547 1548 1548 1548 1548 1550 1551 1550 1551 1555 1557 1558 1559 1560 1565 1566 1568 1566 1565 1564 1559 1560 1559 1568 1562 1564 1555 1556 1557 1541 1536 1537 1534 1527 1519 1515
1537 1539 1541 1542 1543 1543 1544 1548 1548 1549 1552 1551 1555 1555 1552 1552 1553 1557 1557 1558 1560 1564 1562 1562 1563 1562 1561 1560 1559 1560 1561 1565 1573 1556 1557 1561 1567 1535 1532 1528 1524 1521 1525 1518
1537 1539 1540 1542 1542 1543 1545 1547 1549 1550 1557 1553 1554 1552 1552 1553 1554 1557 1557 1558 1560 1563 1561 1560 1559 1558 1555 1554 1549 1552 1559 1566 1570 1559 1568 1558 1535 1523 1520 1521 1517 1516 1513 1511
1535 1537 1539 1541 1542 1543 1545 1547 1550 1550 1556 1553 1552 1552 1552 1553 1554 1557 1557 1557 1558 1559 1560 1566 1570 1566 1561 1551 1545 1547 1546 1562 1564 1561 1559 1541 1531 1521 1520 1520 1515 1515 1512 1508
1533 1536 1538 1539 1541 1543 1545 1546 1549 1551 1551 1552 1551 1552 1552 1555 1555 1555 1554 1556 1556 1558 1562 1572 1577 1585 1564 1559 1550 1550 1550 1554 1562 1566 1564 1551 1525 1518 1517 1515 1516 1511 1511 1509
1530 1533 1536 1538 1540 1542 1544 1545 1547 1550 1551 1549 1550 1551 1552 1552 1552 1555 1554 1555 1556 1558 1567 1572 1572 1575 1559 1565 1569 1561 1562 1562 1563 1568 1555 1539 1516 1514 1515 1527 1517 1509 1507 1502
1526 1530 1533 1536 1538 1540 1543 1545 1546 1547 1548 1548 1549 1549 1550 1551 1552 1556 1554 1557 1555 1560 1567 1568 1568 1566 1564 1557 1547 1551 1557 1563 1557 1559 1545 1543 1512 1511 1526 1517 1506 1505 1497 1494
1523 1526 1529 1532 1535 1537 1540 1543 1544 1545 1546 1546 1545 1545 1546 1548 1549 1551 1550 1552 1552 1552 1559 1562 1560 1560 1557 1555 1547 1540 1548 1544 1545 1542 1528 1508 1510 1515 1510 1509 1503 1496 1494 1490
1518 1522 1525 1529 1531 1534 1536 1539 1541 1542 1543 1542 1540 1538 1542 1543 1544 1545 1547 1546 1547 1546 1546 1546 1547 1547 1546 1545 1541 1540 1535 1533 1532 1527 1511 1505 1508 1506 1504 1499 1496 1492 1488 1485
1513 1517 1520 1525 1527 1530 1532 1534 1538 1539 1538 1536 1533 1534 1534 1535 1537 1537 1538 1539 1541 1540 1541 1539 1539 1541 1537 1532 1530 1529 1529 1528 1521 1513 1510 1505 1502 1501 1497 1493 1492 1486 1484 1482
1507 1512 1516 1520 1523 1526 1527 1529 1531 1534 1539 1531 1528 1526 1530 1529 1531 1531 1531 1531 1531 1531 1533 1533 1533 1530 1531 1522 1521 1518 1516 1514 1517 1506 1501 1502 1494 1494 1492 1489 1486 1486 1481 1479
1500 1506 1511 1514 1519 1521 1522 1521 1522 1527 1530 1529 1522 1518 1517 1521 1523 1523 1522 1523 1524 1526 1524 1520 1517 1518 1522 1516 1503 1501 1503 1503 1502 1499 1496 1494 1491 1491 1489 1486 1484 1481 1480 1475
1493 1499 1503 1507 1511 1513 1512 1513 1514 1519 1523 1525 1519 1512 1510 1511 1513 1515 1515 1516 1517 1518 1517 1510 1511 1512 1513 1505 1495 1490 1496 1495 1494 1491 1489 1488 1488 1487 1484 1485 1483 1479 1475 1471
1487 1493 1497 1500 1504 1504 1505 1506 1511 1514 1518 1516 1513 1510 1511 1509 1509 1511 1510 1511 1511 1509 1507 1506 1505 1503 1500 1497 1486 1486 1487 1486 1486 1485 1485 1486 1485 1484 1481 1481 1476 1477 1472 1466
1484 1488 1493 1496 1498 1499 1499 1504 1508 1511 1514 1511 1510 1508 1507 1507 1507 1508 1510 1509 1510 1507 1502 1501 1502 1497 1491 1483 1480 1482 1482 1481 1481 1481 1482 1481 1480 1482 1482 1477 1473 1471 1466 1462
1482 1486 1491 1493 1495 1498 1502 1505 1506 1509 1505 1506 1505 1505 1506 1508 1507 1507 1511 1508 1508 1503 1497 1497 1493 1483 1477 1476 1475 1477 1477 1478 1477 1479 1481 1483 1478 1478 1476 1472 1467 1464 1460 1457
1483 1486 1491 1495 1498 1500 1500 1503 1506 1507 1506 1504 1502 1502 1503 1502 1505 1507 1507 1505 1506 1502 1498 1497 1491 1483 1474 1472 1470 1473 1476 1477 1480 1478 1479 1477 1477 1475 1470 1466 1463 1459 1455 1452
1486 1488 1492 1497 1499 1500 1502 1502 1504 1502 1502 1500 1500 1501 1502 1503 1504 1505 1507 1507 1507 1501 1494 1494 1489 1477 1471 1473 1473 1473 1475 1476 1476 1475 1475 1473 1471 1469 1466 1462 1457 1453 1450 1446
1488 1491 1493 1495 1499 1500 1501 1499 1497 1497 1495 1496 1498 1501 1503 1504 1506 1507 1508 1506 1502 1497 1495 1489 1484 1473 1474 1474 1474 1474 1474 1474 1474 1472 1471 1468 1465 1462 1459 1454 1450 1446 1443 1440
1489 1489 1495 1494 1497 1495 1492 1493 1494 1496 1495 1496 1498 1500 1503 1505 1507 1509 1509 1503 1499 1495 1491 1491 1483 1479 1477 1475 1475 1476 1474 1473 1471 1468 1464 1460 1458 1453 1450 1448 1444 1440 1436 1433
1489 1489 1493 1494 1491 1491 1492 1494 1497 1496 1496 1498 1499 1501 1503 1503 1506 1506 1506 1505 1494 1495 1492 1484 1481 1480 1480 1478 1475 1473 1472 1469 1467 1462 1458 1455 1451 1447 1443 1440 1436 1432 1429 1426
1488 1489 1490 1490 1491 1493 1492 1495 1497 1498 1498 1500 1500 1501 1505 1506 1503 1505 1502 1500 1495 1486 1479 1480 1478 1477 1476 1474 1471 1468 1465 1463 1461 1457 1453 1448 1444 1440 1436 1431 1427 1424 1421 1420
1487 1489 1490 1488 1489 1490 1491 1493 1496 1498 1499 1500 1500 1505 1501 1495 1501 1498 1486 1485 1477 1474 1474 1474 1474 1474 1471 1468 1464 1461 1459 1457 1453 1449 1444 1440 1437 1432 1428 1423 1420 1417 1415 1415
Wind_Speed
3 4 6 8 10 7 6 4 3 4 4 3 3 3 4 2 3 4 2 6 6 5 6 5 6 4 4 6 9 3 4 2 3 10 16 10 5 6 5 2 5 4 4 10
3 2 4 6 8 10 7 6 6 8 5 3 2 4 4 9 7 7 5 3 5 3 2 3 5 3 5 5 3 3 2 3 3 8 6 7 5 14 13 9 1 9 3 8
4 2 2 3 5 8 6 3 3 4 4 4 7 5 5 4 4 4 3 3 3 4 6 6 4 4 4 4 2 7 5 2 5 5 5 6 10 18 20 12 3 8 11 22
6 3 1 2 3 5 4 4 2 2 2 6 10 8 4 6 4 2 2 2 3 4 3 5 4 6 6 14 5 7 7 5 6 8 7 10 16 20 21 16 16 13 24 19
7 4 2 1 3 5 7 3 3 4 4 8 8 4 5 6 6 5 4 3 7 6 3 2 4 5 4 4 3 5 2 5 1 6 12 11 8 21 21 20 15 12 13 18
9 6 3 1 2 5 6 5 5 3 2 3 4 2 3 5 6 2 3 5 3 4 1 4 6 9 13 16 9 4 5 3 2 12 3 5 7 13 4 6 12 11 7 4
10 7 5 3 2 5 7 4 3 2 3 3 2 6 3 3 3 2 3 7 2 3 3 6 11 17 18 14 21 14 4 3 2 4 2 4 8 14 21 17 8 8 8 14
10 8 6 4 4 5 5 4 3 2 1 3 5 6 3 8 6 2 3 4 4 2 3 4 6 5 6 6 5 6 8 5 1 2 3 9 9 9 3 11 16 4 10 21
12 10 8 6 5 5 6 6 4 2 3 5 8 5 5 2 3 3 5 2 1 3 5 4 1 3 4 4 4 9 7 7 3 2 4 6 7 4 16 14 11 11 23 15
15 13 11 9 7 6 6 6 6 4 3 6 4 2 2 2 2 2 1 2 0 3 2 2 3 4 3 3 4 3 3 2 2 3 5 7 7 9 9 4 9 22 18 19
19 17 15 13 11 9 8 8 6 5 5 11 8 7 12 8 5 4 3 4 1 4 2 3 3 4 4 2 4 3 5 3 4 2 5 8 5 12 5 14 26 35 32 21
22 20 18 16 14 12 11 12 11 9 10 9 8 9 18 17 13 9 4 5 2 8 3 3 2 3 1 4 6 3 3 7 4 9 6 11 29 25 33 39 37 37 29 19
26 23 21 19 18 16 15 15 15 14 12 20 24 27 24 22 21 19 11 11 11 10 16 9 4 4 3 4 5 5 2 12 6 6 5 25 31 41 38 36 34 23 18 20
27 25 24 24 22 21 19 19 18 17 7 6 14 21 27 29 22 23 22 25 26 28 23 15 3 3 13 4 6 8 7 7 8 14 24 32 27 28 33 24 20 16 10 14
24 25 24 23 21 20 20 21 22 20 16 5 6 10 12 8 15 15 17 22 27 29 12 7 4 6 4 6 3 3 15 15 8 15 28 23 33 25 28 13 10 11 15 16
31 29 24 21 21 21 21 20 30 26 24 10 3 7 17 19 22 29 29 29 30 29 13 8 11 24 14 4 7 13 25 24 26 22 30 37 24 21 15 11 15 17 18 22
26 28 28 29 27 27 31 7 4 14 22 12 6 5 4 20 23 23 24 25 22 23 20 11 15 14 11 2 11 29 27 25 31 38 36 14 8 8 10 13 17 19 16 18
17 20 20 20 24 27 27 28 23 19 22 8 2 3 3 7 5 5 8 6 9 8 9 3 4 6 7 5 17 24 20 22 25 11 7 7 9 12 13 15 19 20 19 21
13 15 14 16 17 12 12 16 17 22 11 6 4 2 2 5 4 4 1 2 1 6 4 5 6 2 6 8 17 19 22 16 5 4 4 5 11 15 19 22 24 24 26 26
17 21 7 5 6 8 10 7 7 12 7 7 4 5 2 8 7 2 1 2 2 2 4 4 3 6 22 27 30 29 2 5 7 9 6 9 16 21 26 26 25 29 29 29
9 4 4 13 13 4 4 2 2 2 2 5 4 11 1 3 3 2 5 1 1 2 4 3 3 3 7 10 6 6 5 5 4 5 6 14 21 25 29 31 32 31 31 29
6 6 14 9 3 2 2 3 3 3 3 7 4 3 3 2 2 2 4 1 1 5 7 1 3 4 11 5 9 14 6 1 5 6 12 28 27 27 26 28 30 30 29 30
13 4 4 4 2 3 4 5 3 2 3 2 4 3 3 2 2 2 1 3 4 4 1 3 4 7 13 12 9 11 14 13 15 20 25 27 31 32 28 28 27 27 30 23
2 3 3 4 3 3 1 1 2 3 7 10 9 5 2 2 2 1 2 4 1 3 3 4 3 13 11 11 13 16 19 23 23 24 26 32 39 35 32 30 27 28 27 27
1 2 3 4 2 4 6 6 6 8 9 8 7 4 2 2 1 3 1 3 4 5 4 2 8 9 12 13 17 21 24 24 26 28 34 39 36 32 34 32 33 27 26 25
1 2 1 2 4 4 4 5 9 9 10 6 3 3 2 3 3 2 6 2 6 3 1 9 16 18 20 21 21 26 31 30 31 34 39 35 34 34 35 36 34 30 22 18
2 3 5 3 3 3 7 9 7 8 7 2 2 2 9 3 2 3 4 5 3 10 20 24 26 25 27 27 30 30 32 33 39 36 35 34 34 35 35 37 35 23 17 12
Wind_Direction
313 349 3 10 24 33 36 50 70 58 67 59 23 54 29 70 122 57 50 41 51 20 50 353 34 83 81 34 357 43 348 190 283 277 279 264 74 8 356 135 270 240 237 269
276 334 0 11 16 27 22 44 81 49 28 100 343 101 68 52 11 25 29 77 22 357 35 51 38 45 123 105 84 129 14 338 348 334 2 15 17 338 331 323 200 254 245 270
232 270 346 17 17 18 39 36 40 33 20 350 152 152 163 118 52 67 34 98 258 53 29 22 3 336 186 202 186 170 131 207 171 212 247 315 316 312 305 299 253 281 250 290
217 215 237 40 47 34 47 40 59 39 328 355 56 47 351 144 140 113 1 183 90 80 65 350 0 12 359 357 149 175 158 216 223 260 290 293 298 293 285 285 281 285 290 288
218 217 221 133 96 93 62 65 45 59 30 354 82 47 360 11 111 48 115 47 23 42 109 123 18 27 23 253 299 356 277 260 206 271 277 281 297 278 283 283 276 269 283 300
205 203 209 194 118 130 95 89 71 113 22 18 64 247 310 84 75 58 78 55 27 26 22 25 329 312 286 261 259 243 241 200 120 281 353 19 305 268 263 237 308 289 284 340
206 205 204 200 170 142 130 112 112 122 281 101 204 321 333 359 134 162 48 17 6 11 344 304 295 295 288 284 271 250 223 122 131 279 42 199 239 316 304 294 278 317 26 360
214 209 207 208 194 174 179 135 124 144 195 282 302 295 307 327 328 302 305 319 169 271 19 51 359 335 4 301 248 55 177 125 212 266 219 269 284 268 297 321 310 10 0 338
218 216 213 207 199 189 181 168 168 188 131 256 241 289 296 214 235 322 274 74 265 45 84 74 132 257 249 287 323 99 76 89 129 255 264 289 228 342 24 353 283 3 348 336
219 221 221 225 227 210 195 186 185 201 250 252 244 214 264 312 260 157 151 178 356 155 109 125 208 243 272 239 191 260 357 351 190 277 271 266 260 283 309 30 299 311 305 308
222 226 227 225 229 233 228 231 234 219 236 258 250 239 257 285 318 138 148 28 273 71 112 159 215 206 247 305 227 213 182 173 220 232 236 268 345 349 17 298 314 314 309 310
227 227 227 230 233 236 239 247 246 250 238 257 264 246 239 245 255 270 224 209 188 202 115 202 181 228 239 197 264 247 264 199 211 194 225 289 310 305 307 304 304 305 312 332
232 232 234 238 239 241 245 250 257 266 274 274 266 258 262 253 248 249 255 249 239 229 241 193 201 220 152 188 227 215 242 268 254 313 256 279 301 301 297 300 306 319 324 329
234 233 234 240 243 243 246 250 254 256 256 251 253 271 266 271 257 255 249 254 260 258 259 263 185 189 196 213 231 212 196 213 250 262 278 284 285 293 307 316 322 331 353 348
230 232 234 236 239 242 247 251 249 247 239 272 250 242 261 247 271 263 266 259 252 253 242 226 224 217 208 216 211 197 206 250 245 267 276 283 286 314 323 332 351 355 354 339
230 230 230 229 233 242 248 253 256 249 242 265 287 266 265 261 257 258 255 253 252 252 238 238 238 241 209 240 249 238 257 259 256 263 282 290 308 326 325 339 12 350 329 313
226 233 238 236 238 245 218 211 172 229 227 230 276 266 228 241 247 252 251 246 248 254 254 238 250 233 214 250 276 278 276 272 280 284 283 297 329 338 12 3 343 339 317 307
223 225 232 237 236 226 227 230 239 227 192 197 226 266 270 204 196 218 241 234 243 230 242 231 235 247 209 236 251 268 280 286 282 297 358 52 11 351 352 337 344 328 311 315
207 206 202 213 218 214 226 237 227 191 195 194 204 196 222 174 169 194 230 241 322 262 246 217 180 207 226 231 259 287 291 299 308 11 69 31 6 338 325 327 328 326 319 317
148 158 149 143 158 157 161 149 172 201 215 211 218 198 250 187 180 148 190 199 236 261 242 231 215 252 265 270 274 275 14 90 55 33 48 1 353 333 324 321 319 322 320 316
138 116 85 128 132 120 139 136 170 200 254 214 223 201 207 175 137 171 209 223 228 261 273 171 261 267 259 292 231 132 88 65 106 94 7 352 336 325 320 315 312 314 316 313
155 142 125 131 128 116 140 178 178 207 237 176 185 206 199 117 99 120 171 246 203 259 325 331 267 260 276 140 110 98 139 21 338 328 329 328 334 331 320 315 312 310 312 309
135 131 120 148 153 171 190 191 186 204 162 140 140 82 94 88 110 70 38 240 237 329 261 238 225 324 66 55 40 9 2 345 329 323 323 326 331 331 323 322 319 306 309 309
175 138 118 177 180 251 187 155 106 124 122 121 124 88 90 101 95 179 243 248 351 260 250 230 311 40 29 5 354 337 335 330 322 316 321 326 327 324 319 324 319 312 306 305
221 143 190 198 144 105 113 107 119 132 120 111 95 95 111 126 89 214 329 307 244 211 233 185 38 19 10 353 335 325 327 324 318 317 318 319 318 316 312 316 321 312 307 306
224 193 159 155 124 149 129 155 156 149 151 142 121 119 73 250 186 157 216 196 225 242 129 5 350 343 334 333 327 322 321 315 307 308 311 307 306 307 306 304 314 308 307 276
207 214 204 168 138 181 183 177 185 185 161 168 142 133 216 201 226 231 208 206 221 358 338 332 327 326 324 323 321 317 311 305 304 305 305 305 305 301 300 304 312 302 292 238